TimeCST,TemperatureF,Dew PointF,Humidity,Sea Level PressureIn,VisibilityMPH,Wind Direction,Wind SpeedMPH,Gust SpeedMPH,PrecipitationIn,Events,Conditions,WindDirDegrees,DateUTC
12:53 AM,37.9,10.0,32,29.93,10.0,West,12.7,-,N/A,,Clear,270,2014-01-14 06:53:00
1:53 AM,37.0,10.0,33,29.91,10.0,West,11.5,-,N/A,,Clear,270,2014-01-14 07:53:00
2:53 AM,36.0,12.9,39,29.95,10.0,WNW,13.8,-,N/A,,Clear,290,2014-01-14 08:53:00
3:53 AM,35.1,12.9,40,29.99,10.0,NNW,9.2,-,N/A,,Clear,340,2014-01-14 09:53:00
4:53 AM,-9999,-9999,N/A,30.04,10.0,North,8.1,-,N/A,,Clear,350,2014-01-14 10:53:00
5:53 AM,-9999,-9999,N/A,30.05,10.0,NNW,4.6,-,N/A,,Clear,330,2014-01-14 11:53:00
6:53 AM,-9999,-9999,N/A,30.07,10.0,North,13.8,-,N/A,,Clear,350,2014-01-14 12:53:00
7:53 AM,-9999,-9999,N/A,30.11,10.0,North,21.9,27.6,N/A,,Clear,350,2014-01-14 13:53:00
8:53 AM,-9999,-9999,N/A,30.16,10.0,North,23.0,31.1,N/A,,Partly Cloudy,10,2014-01-14 14:53:00
9:53 AM,-9999,-9999,N/A,30.24,10.0,North,19.6,-,N/A,,Clear,360,2014-01-14 15:53:00
10:53 AM,-9999,-9999,N/A,30.29,10.0,North,21.9,31.1,N/A,,Clear,10,2014-01-14 16:53:00
11:53 AM,-9999,-9999,N/A,30.29,10.0,North,20.7,31.1,N/A,,Clear,10,2014-01-14 17:53:00
12:53 PM,-9999,-9999,N/A,30.29,10.0,North,24.2,36.8,N/A,,Partly Cloudy,360,2014-01-14 18:53:00
1:53 PM,44.1,18.0,35,30.30,10.0,North,26.5,35.7,N/A,,Overcast,360,2014-01-14 19:53:00
2:53 PM,42.1,19.0,40,30.34,10.0,North,19.6,31.1,N/A,,Overcast,360,2014-01-14 20:53:00
3:53 PM,41.0,21.9,47,30.37,10.0,NNW,20.7,35.7,N/A,,Overcast,330,2014-01-14 21:53:00
4:53 PM,39.9,21.0,47,30.36,10.0,NNW,21.9,26.5,N/A,,Overcast,330,2014-01-14 22:53:00
5:53 PM,39.0,17.1,41,30.38,10.0,NNW,26.5,34.5,N/A,,Overcast,330,2014-01-14 23:53:00
6:53 PM,37.0,19.0,48,30.38,10.0,NW,17.3,-,N/A,,Mostly Cloudy,310,2014-01-15 00:53:00
7:53 PM,39.0,12.9,34,30.38,10.0,NNW,18.4,26.5,N/A,,Overcast,330,2014-01-15 01:53:00
8:53 PM,37.9,17.1,43,30.39,10.0,NW,12.7,-,N/A,,Overcast,310,2014-01-15 02:53:00
9:53 PM,37.0,16.0,42,30.38,10.0,NW,12.7,-,N/A,,Overcast,310,2014-01-15 03:53:00
10:53 PM,32.0,16.0,52,30.38,10.0,WNW,9.2,-,N/A,,Partly Cloudy,300,2014-01-15 04:53:00
11:53 PM,28.9,16.0,58,30.36,10.0,WNW,9.2,-,N/A,,Partly Cloudy,290,2014-01-15 05:53:00